Waco, TX

7:48 AM CDT on March 30, 2017 (GMT -0500)
Waco Regional

Weather History for KACT - September, 2012

Change the Weather History Date:

Wednesday, September 12, 2012

  Actual Average Record
Temperature  
Mean Temperature 82 °F 79 °F  
Max Temperature 95 °F 91 °F 106 °F (2011)
Min Temperature 69 °F 68 °F 51 °F (1940)
Degree Days  
Heating Degree Days 0 0  
Month to date heating degree days 0 0  
Since 1 July heating degree days 0 0  
Cooling Degree Days 17 14  
Month to date cooling degree days 224 193  
Year to date cooling degree days 2811 2388  
Growing Degree Days 32 (Base 50)    
Moisture  
Dew Point 64 °F    
Average Humidity 54    
Maximum Humidity 79    
Minimum Humidity 28    
Precipitation  
Precipitation 0.00 in 0.10 in 4.80 in (1913)
Month to date precipitation 0.00 1.22  
Year to date precipitation 26.84 23.38  
Sea Level Pressure  
Sea Level Pressure 29.99 in    
Wind  
Wind Speed 8 mph (SSE)    
Max Wind Speed 17 mph    
Max Gust Speed 22 mph    
Visibility 10 miles    
Events      
T = Trace of Precipitation, MM = Missing Value Source: NWS Daily Summary

Daily Weather History Graph

Daily Weather History Graph

Search for Another Location

Airport or City:

Trip Planner

Search our weather history database for the weather conditions in past years. The results will help you decide how hot, cold, wet, or windy it might be!

Date:

Astronomy

Sep. 12, 2012 Rise Set
Actual Time 7:11 AM CDT 7:37 PM CDT
Civil Twilight 6:47 AM CDT 8:02 PM CDT
Nautical Twilight 6:18 AM CDT 8:30 PM CDT
Astronomical Twilight 5:49 AM CDT 8:59 PM CDT
Moon 3:40 AM CDT (9/12) 5:17 PM CDT (9/12)
Length of Visible Light 13h 15m
Length of Day
12h 26m
Waning Crescent, 13% of the Moon is Illuminated
Sep 12
Waning Crescent
Sep 15
New
Sep 22
First Quarter
Sep 29
Full
Oct 8
Last Quarter

Hourly Weather History & Observations

Time (CDT) Temp. Heat Index Dew Point Humidity Pressure Visibility Wind Dir Wind Speed Gust Speed Precip Events Conditions
12:51 AM 78.1 °F - 63.0 °F 60% 30.01 in 10.0 mi SSE 13.8 mph - N/A   Clear
1:51 AM 77.0 °F - 63.0 °F 62% 30.01 in 10.0 mi SSE 10.4 mph - N/A   Clear
2:51 AM 75.0 °F - 63.0 °F 66% 30.00 in 10.0 mi SSE 8.1 mph - N/A   Clear
3:51 AM 73.0 °F - 64.0 °F 73% 29.99 in 10.0 mi SSE 5.8 mph - N/A   Clear
4:43 AM 73.4 °F - 64.4 °F 73% 30.02 in 10.0 mi SSE 10.4 mph - N/A   Mostly Cloudy
4:51 AM 73.0 °F - 64.9 °F 76% 29.99 in 10.0 mi South 8.1 mph - N/A   Mostly Cloudy
5:51 AM 73.0 °F - 64.0 °F 73% 30.00 in 10.0 mi SSE 6.9 mph - N/A   Mostly Cloudy
6:51 AM 69.1 °F - 63.0 °F 81% 30.01 in 10.0 mi ESE 5.8 mph - N/A   Scattered Clouds
7:01 AM 69.8 °F - 62.6 °F 78% 30.04 in 10.0 mi ESE 4.6 mph - N/A   Mostly Cloudy
7:22 AM 69.8 °F - 62.6 °F 78% 30.04 in 9.0 mi ESE 3.5 mph - N/A   Scattered Clouds
7:51 AM 71.1 °F - 64.0 °F 78% 30.03 in 8.0 mi SSE 3.5 mph - N/A   Scattered Clouds
8:51 AM 75.9 °F - 66.0 °F 71% 30.04 in 10.0 mi SSE 8.1 mph - N/A   Mostly Cloudy
9:51 AM 80.1 °F 82.9 °F 69.1 °F 69% 30.04 in 10.0 mi SSE 9.2 mph - N/A   Mostly Cloudy
10:01 AM 80.6 °F 83.9 °F 69.8 °F 70% 30.07 in 10.0 mi South 8.1 mph - N/A   Scattered Clouds
10:51 AM 82.9 °F 87.0 °F 70.0 °F 65% 30.05 in 10.0 mi South 10.4 mph - N/A   Partly Cloudy
11:51 AM 87.1 °F 91.3 °F 69.1 °F 55% 30.04 in 10.0 mi SSE 8.1 mph - N/A   Partly Cloudy
12:51 PM 90.0 °F 92.8 °F 66.9 °F 46% 30.02 in 10.0 mi South 10.4 mph 19.6 mph N/A   Scattered Clouds
1:51 PM 91.9 °F 94.1 °F 64.9 °F 41% 29.99 in 10.0 mi South 10.4 mph - N/A   Scattered Clouds
2:51 PM 93.0 °F 92.7 °F 60.1 °F 33% 29.96 in 10.0 mi South 6.9 mph - N/A   Partly Cloudy
3:51 PM 95.0 °F 95.2 °F 60.8 °F 32% 29.96 in 10.0 mi Variable 6.9 mph - N/A   Partly Cloudy
4:51 PM 95.0 °F 93.7 °F 57.2 °F 28% 29.94 in 10.0 mi SSE 9.2 mph 21.9 mph N/A   Partly Cloudy
5:51 PM 91.9 °F 90.6 °F 57.0 °F 31% 29.91 in 10.0 mi SE 4.6 mph - N/A   Partly Cloudy
6:51 PM 93.2 °F 91.9 °F 57.2 °F 30% 29.93 in 10.0 mi SSE 6.9 mph - N/A   Clear
7:51 PM 87.1 °F 86.7 °F 60.1 °F 40% 29.90 in 10.0 mi East 3.5 mph - N/A   Clear
8:51 PM 82.9 °F 83.2 °F 60.1 °F 46% 29.93 in 10.0 mi East 4.6 mph - N/A   Clear
9:51 PM 84.9 °F 85.9 °F 63.0 °F 48% 29.96 in 10.0 mi SE 9.2 mph - N/A   Partly Cloudy
10:51 PM 84.9 °F 87.6 °F 66.9 °F 55% 29.97 in 10.0 mi SSE 9.2 mph - N/A   Clear
11:51 PM 84.2 °F 87.3 °F 68.0 °F 58% 30.01 in 10.0 mi SSE 12.7 mph - N/A   Clear